Weather in Suvorovo

Russia / Nizhny Novgorod Oblast'     55°05′07″N   43°28′08″E
temp.,
°C
wind,
m/s
gust,
m/s
humid.,
%
clouds,
%
prec.,
mm/h
press.,
hPa
HPBL,
m
17 june, thu
thu1700:00+14n411880 0.0 1016235
03:00+11n36870 0.0 101899
06:00+13n38720 0.0 1019194
09:00+19n46520 0.0 1020586
12:00+22nnw56425 0.0 10211513
15:00+22n56445 0.0 10221608
18:00+20n47595 0.0 10231152
21:00+14nne22797 0.0 102425
18 june, fri
fri1800:00+13nne25765 0.0 102590
03:00+11nne22770 0.0 102623
06:00+15nne12700 0.0 1027107
09:00+19n23565 0.0 1028762
12:00+22n34535 0.0 10271377
15:00+23n13475 0.0 10261716
18:00+23e0161100 0.0 1026230
21:00+16sse228554 0.0 102726
19 june, sat
sat1900:00+14ssw359490 0.0 102781
03:00+13sw25965 0.0 102887
06:00+16wsw368499 0.0 1028204
09:00+22w34655 0.0 1027613
12:00+25w34515 0.0 10261406
15:00+26wsw44488 0.0 10251622
18:00+23sw46675 0.0 1025557
21:00+18wsw38925 0.0 1025151
20 june, sun
sun2000:00+16w36955 0.0 1025107
03:00+15w23961 0.0 102660
06:00+18w24840 0.0 1026165
09:00+23w23640 0.0 1025696
12:00+26w33480 0.0 10241300
15:00+27wsw33460 0.0 10241220
18:00+25sw34610 0.0 1023321
21:00+19wsw228093 0.0 102311
21 june, mon
mon2100:00+17wsw228483 0.0 102313
03:00+16w1286100 0.0 102312
06:00+19w128199 0.0 102394
09:00+25w225918 0.0 1023741
12:00+27w33465 0.0 10221444
15:00+28w33450 0.0 10211505
18:00+26sw34600 0.0 1021309
21:00+20wsw22830 0.0 102125